Terug naar catalogus

STARLINK-35942

ActiefCommunicatieVLEO
NORAD 66926·PAYLOAD·🇺🇸 United States

Gelanceerd Dec 7, 2025 vanaf Vandenberg Space Force Base

Loading…

Volgende Passages (komende 24 uur)

TLE

VersSource: CelesTrak SupGP

Epoch: Sep 15, 2026, 03:22 UTC

1 66926C 25286B   26258.14076389 -.00128480  00000+0 -37939-2 0  2588
2 66926  53.1578 194.8297 0001355  83.2998 289.8930 15.34470428    11

Volg STARLINK-35942 in realtime met AllMySat

Download on the App Store